Location: Bernay
(48.6766°N, 2.9386°E)
Time: 00:15:19
(UTC+00:00)

Nadezhda 3 Rocket - Pass Details

Date: 12 January 2026
Orbit: 956 x 997 km, 82.9° (Epoch: 16 February)

Event Time Altitude Azimuth Distance (km) Brightness Sun altitude
Rises 18:13:38 0° 167° (SSE) 3,625 7.0 -18.7°
Reaches altitude 10° 18:16:12 10° 162° (SSE) 2,682 6.2 -19.2°
Maximum altitude 18:22:01 47° 90° (E) 1,245 4.1 -20.1°
Enters shadow 18:27:27 12° 20° (NNE) 2,551 5.9 -21.0°
